This is the latest recevied weather packets stored in our database for station/object KE6AFE. If no packets are shown the sender has not sent any weather packets the latest 1 day(s).
| Time | Temp. | Humidity | Pressure | Rain* | Wind** | Luminosity | Snow |
|---|---|---|---|---|---|---|---|
| 1778006630 | 17.22° C | 64% | 1016.9 hPa | 0 mm | 0 m/s | - | - |
| 1778006020 | 17.22° C | 63% | 1016.9 hPa | 0 mm | 0 m/s | - | - |
| 1778005410 | 17.22° C | 62% | 1016.8 hPa | 0 mm | 0 m/s | - | - |
| 1778004800 | 17.22° C | 62% | 1016.7 hPa | 0 mm | 0 m/s | - | - |
| 1778004190 | 17.22° C | 62% | 1016.7 hPa | 0 mm | 0 m/s | - | - |
| 1778003580 | 16.67° C | 61% | 1016.5 hPa | 0 mm | 0 m/s | - | - |
| 1778002970 | 16.67° C | 61% | 1016.4 hPa | 0 mm | 0 m/s | - | - |
| 1778002360 | 16.11° C | 62% | 1016.4 hPa | 0 mm | 0 m/s | - | - |
| 1778001750 | 16.11° C | 61% | 1016.4 hPa | 0 mm | 0 m/s | - | - |
| 1778001140 | 16.11° C | 62% | 1016.5 hPa | 0 mm | 0 m/s | - | - |
| 1778000530 | 15.56° C | 62% | 1016.4 hPa | 0 mm | 0 m/s | - | - |
| 1777999920 | 15° C | 63% | 1016.2 hPa | 0 mm | 0 m/s | - | - |
| 1777999310 | 15° C | 65% | 1016.1 hPa | 0 mm | 0 m/s | - | - |
| 1777998700 | 14.44° C | 66% | 1016 hPa | 0 mm | 0 m/s | - | - |
| 1777998090 | 13.89° C | 67% | 1016.1 hPa | 0 mm | 0 m/s | - | - |
| 1777997480 | 13.89° C | 67% | 1016 hPa | 0 mm | 0 m/s | - | - |
| 1777996870 | 13.33° C | 67% | 1015.9 hPa | 0 mm | 0 m/s | - | - |
| 1777996260 | 13.33° C | 67% | 1016 hPa | 0 mm | 0 m/s | - | - |
| 1777995650 | 13.33° C | 67% | 1016 hPa | 0 mm | 0 m/s | - | - |
| 1777995040 | 13.33° C | 67% | 1016 hPa | 0 mm | 0 m/s | - | - |
| 1777994430 | 13.33° C | 66% | 1015.9 hPa | 0 mm | 0 m/s | - | - |
| 1777993820 | 13.33° C | 67% | 1015.8 hPa | 0 mm | 0 m/s | - | - |
| 1777993210 | 12.78° C | 67% | 1015.8 hPa | 0 mm | 0 m/s | - | - |
| 1777992600 | 12.78° C | 67% | 1015.7 hPa | 0 mm | 0 m/s | - | - |
| 1777991990 | 12.78° C | 67% | 1015.5 hPa | 0 mm | 0 m/s | - | - |
* Rain latest hour (hover to see other rain measurements)
** Current wind speed in m/s (hover to see current wind gust speed)